Theta_e
328 325 324 324 327 325 329 329 325 328 328 326 327 328 331 334 332 331 336 336 336 336 338 339 339 338 338 333 332 329 329 331 331 331 331 332 331 330 329 328 326 326 326 326 326 326 325 325 325
326 324 325 320 328 330 329 327 328 330 328 330 329 331 334 336 335 335 336 337 335 337 339 339 338 336 332 331 329 329 330 329 331 332 329 330 329 329 328 327 326 326 325 325 326 326 324 324 325
325 324 322 323 324 330 330 331 330 328 326 327 331 332 334 336 333 335 336 336 335 338 339 338 335 332 329 329 328 328 329 329 331 331 329 331 331 330 328 327 325 326 325 325 325 326 324 323 324
324 320 318 326 331 327 327 331 329 331 329 328 329 333 331 334 333 336 336 336 336 338 338 337 333 330 328 328 329 330 328 329 329 330 327 330 333 330 327 327 326 325 325 324 325 325 323 322 323
322 317 323 326 328 325 323 329 327 331 329 330 329 332 334 335 335 336 336 336 336 338 338 336 332 329 328 327 328 328 328 329 328 329 329 330 333 330 328 326 325 325 326 325 324 323 323 323 324
321 318 326 329 328 324 322 328 327 328 327 328 329 332 333 334 335 336 336 336 335 336 337 336 332 328 328 325 326 328 329 326 329 326 329 328 327 328 328 326 325 324 325 325 324 317 318 321 323
321 323 327 327 327 325 323 325 329 328 328 330 327 332 331 334 335 337 336 336 335 335 335 335 332 329 328 325 323 327 329 328 328 327 328 329 328 327 326 324 324 325 324 325 320 316 315 316 321
316 319 326 325 325 327 324 324 323 327 329 323 328 327 327 333 336 337 337 336 336 335 334 334 333 330 328 326 323 324 327 328 327 327 326 327 325 326 325 324 323 323 322 322 318 316 316 317 320
315 322 325 327 325 326 319 325 321 323 327 327 328 326 328 333 335 336 337 336 336 336 336 335 334 332 329 328 326 324 325 325 326 326 325 326 325 324 324 324 323 325 324 322 319 317 317 317 319
318 323 324 322 321 322 320 321 319 324 325 327 328 332 332 334 334 335 335 335 338 336 338 335 334 333 331 329 329 326 325 325 324 324 325 324 324 324 323 323 322 324 325 324 323 317 317 317 317
318 323 320 321 319 318 320 321 318 323 323 322 326 327 332 333 333 333 334 335 335 336 338 335 334 334 332 330 330 329 326 325 324 323 323 323 322 323 324 323 322 322 322 323 323 318 317 317 318
324 320 319 322 319 319 321 319 319 319 321 320 320 322 331 330 330 332 333 335 335 335 335 334 334 334 333 331 330 330 329 327 326 324 323 322 322 321 322 323 322 322 321 322 322 319 317 317 319
324 323 321 321 320 319 318 319 320 318 316 315 314 318 327 330 331 332 333 333 334 335 335 335 334 334 333 332 331 330 330 330 328 326 325 323 322 321 321 321 321 321 321 321 321 321 317 317 317
322 322 322 321 322 321 321 320 318 319 316 316 320 322 325 328 331 332 333 333 333 335 335 334 334 334 334 333 332 331 330 330 330 329 327 325 322 322 321 320 320 319 320 321 321 321 320 317 318
323 325 322 322 322 322 319 322 319 317 315 316 314 313 313 323 329 331 332 333 333 332 333 334 334 334 334 334 333 331 331 330 329 329 329 327 325 323 322 321 320 321 320 321 322 322 322 320 318
325 323 328 324 322 322 321 326 322 318 318 318 316 314 313 313 316 319 324 331 332 333 332 331 332 333 334 334 333 332 331 331 330 330 329 329 328 326 324 321 320 320 322 322 322 323 322 319 318
325 328 325 324 320 321 321 324 320 318 317 317 316 315 314 313 315 318 318 319 325 330 332 332 331 332 332 333 332 332 332 331 331 331 330 330 329 328 326 324 323 322 322 323 323 323 322 320 318
326 327 325 325 323 322 322 321 318 317 317 317 315 314 313 315 316 318 321 320 319 320 327 331 331 331 331 331 331 330 330 330 330 330 330 330 330 329 328 326 326 325 324 323 323 323 323 321 321
325 325 325 322 321 321 321 321 319 318 317 317 317 316 316 316 317 318 319 321 320 319 321 324 330 331 330 330 328 328 329 329 329 329 330 330 330 330 329 328 327 326 326 326 325 324 323 322 321
327 326 327 322 320 323 322 324 321 318 318 318 318 317 317 317 316 316 316 317 318 319 319 321 325 328 330 330 329 328 328 329 330 329 329 329 330 329 330 329 328 327 326 325 325 324 321 321 320
324 325 323 326 322 321 322 323 320 318 315 315 315 315 316 316 316 316 316 317 318 318 319 319 321 324 328 329 329 328 328 328 329 329 328 329 329 329 329 329 329 327 326 325 325 324 323 321 320
324 319 321 321 323 324 320 323 318 315 314 313 313 311 312 313 312 313 314 315 317 317 316 317 318 321 325 328 329 329 328 327 328 328 329 329 329 329 329 329 328 328 327 326 325 325 324 322 321
322 319 320 320 321 323 322 325 317 314 315 315 314 311 311 308 307 308 310 312 311 312 315 315 315 321 326 328 329 329 328 328 328 328 329 329 329 329 329 329 329 328 327 326 325 324 323 322 321
317 320 321 321 324 327 322 323 321 317 314 313 313 310 307 305 304 304 306 307 307 308 310 314 316 318 324 326 328 328 329 329 329 329 329 329 329 329 329 329 329 328 328 327 326 325 323 322 321
320 322 325 326 325 323 315 321 320 314 312 311 310 310 307 305 303 303 303 304 304 305 306 306 307 307 308 310 315 321 326 327 328 328 328 328 328 328 329 329 329 328 328 328 327 325 324 323 321
320 320 321 324 320 319 314 321 318 313 312 312 310 307 306 304 302 301 301 302 302 302 302 303 303 304 305 306 307 307 308 309 311 313 318 323 327 328 327 327 328 328 328 328 327 325 324 323 322
321 323 318 319 309 314 316 314 313 314 313 311 310 307 305 303 301 299 300 300 300 300 300 299 298 299 300 301 303 303 304 305 306 306 307 309 310 315 320 324 327 327 328 328 327 325 324 324 323
319 318 324 322 323 318 318 314 317 312 311 311 307 306 303 300 299 298 298 298 298 298 297 296 295 296 296 297 298 298 298 299 300 301 302 303 304 306 308 312 319 322 324 325 325 324 324 324 324
321 321 319 318 320 319 317 315 310 308 306 308 308 304 300 298 297 296 296 295 295 296 295 293 292 293 293 294 295 295 295 295 295 296 296 296 298 300 302 304 307 311 318 322 324 324 324 325 325
316 319 318 319 321 319 320 320 312 310 306 307 303 301 299 297 296 295 294 291 291 292 293 291 290 290 290 291 292 293 292 292 293 293 292 292 293 295 296 299 302 303 306 311 319 323 324 325 325
Wind_Speed
28 22 8 4 4 5 1 2 1 1 1 1 2 2 3 2 2 3 2 12 13 19 18 18 16 12 11 8 7 9 13 14 12 11 11 11 12 12 12 14 12 11 10 11 12 12 10 8 8
25 15 4 2 5 3 3 3 3 1 3 5 3 2 3 0 1 1 9 10 17 20 20 17 14 12 9 8 8 11 14 11 12 13 10 10 11 12 12 13 11 10 9 9 10 10 9 10 9
15 9 4 4 3 3 3 3 3 2 4 0 3 3 2 1 1 6 2 14 20 21 20 16 12 10 10 9 9 12 13 13 9 12 9 12 11 12 13 13 11 10 9 9 8 9 10 8 6
11 8 4 5 2 1 1 1 3 4 1 1 3 2 2 1 1 5 7 18 20 20 18 15 13 11 10 10 12 11 11 11 11 10 8 10 14 12 12 12 10 9 9 8 7 7 9 6 5
7 3 4 4 3 4 1 2 5 2 1 0 2 1 2 2 1 5 14 21 21 18 17 15 13 12 11 12 12 13 10 11 10 11 9 8 14 11 9 12 9 8 8 8 7 6 7 6 5
4 3 4 1 3 5 2 2 4 1 1 0 2 4 3 3 4 10 18 19 18 19 17 14 13 12 12 12 13 14 12 9 11 11 8 9 9 9 10 12 9 8 7 6 6 5 6 6 5
5 3 3 2 2 3 2 3 1 3 2 1 4 1 3 3 6 13 19 17 17 17 18 16 14 13 13 13 13 15 15 12 12 11 11 8 10 8 6 10 11 9 7 6 5 4 4 6 6
4 4 2 2 0 1 2 1 1 3 2 2 2 2 3 3 10 15 18 16 16 17 18 17 16 15 15 14 14 15 16 14 14 14 14 11 10 10 10 8 9 8 8 7 6 5 4 4 5
2 4 2 3 4 1 2 2 3 0 4 1 1 2 2 4 15 17 18 18 17 19 20 19 18 18 18 17 16 16 16 15 15 15 15 18 13 11 12 13 10 10 8 7 7 7 6 6 7
4 3 7 2 2 1 0 1 2 1 2 2 3 2 2 16 18 19 19 16 18 20 23 23 21 21 20 20 18 18 18 18 17 17 17 17 20 17 15 15 15 13 11 11 11 9 9 9 9
2 4 3 2 1 0 2 2 1 4 2 6 3 2 3 13 17 18 22 24 28 23 22 26 25 23 23 23 22 21 21 20 19 18 18 18 17 21 18 16 17 17 15 16 16 13 12 12 11
1 3 3 1 2 1 2 2 6 4 5 3 3 1 5 8 15 20 24 28 28 28 28 26 27 25 25 25 25 25 24 24 23 21 20 20 19 19 21 21 19 20 19 18 17 16 14 14 15
2 1 1 4 4 3 2 5 6 5 9 5 6 4 7 9 16 20 25 23 28 30 31 30 28 29 28 29 28 28 28 28 27 25 23 23 22 22 21 22 22 22 22 21 20 19 18 18 17
1 1 3 3 4 4 4 2 4 2 4 5 2 5 6 8 18 15 23 27 30 33 34 32 31 31 32 32 31 31 30 30 29 28 28 26 25 25 24 23 23 24 25 23 23 22 21 21 20
2 4 5 3 3 4 3 7 7 6 4 7 10 8 7 9 14 23 29 30 33 34 36 35 34 33 35 35 34 33 32 30 31 30 30 30 29 28 27 26 26 25 24 24 24 25 25 25 24
1 2 3 3 3 3 5 9 4 2 1 7 9 9 8 9 12 22 30 34 34 34 34 34 35 36 36 38 37 36 35 33 32 32 32 32 32 31 30 29 28 28 27 27 28 27 28 29 28
3 6 4 6 3 3 6 3 5 3 5 8 8 8 9 10 16 28 27 30 34 35 35 35 35 37 38 39 39 38 37 36 35 35 35 35 33 34 33 32 30 28 29 29 30 30 29 30 30
11 6 3 6 2 2 6 10 9 10 6 9 9 8 9 12 17 29 36 32 30 33 36 36 35 36 37 37 37 38 38 38 38 38 38 37 35 35 35 35 33 31 30 32 32 32 32 32 32
3 2 3 1 2 4 6 10 11 12 7 10 10 11 13 15 23 31 36 42 35 30 31 36 35 38 34 34 34 34 39 35 39 40 39 37 37 37 36 37 37 35 35 35 34 33 34 34 31
5 7 6 3 3 2 7 21 13 6 10 13 15 17 18 18 15 22 26 32 34 31 30 31 35 35 36 36 37 30 25 32 39 37 39 40 39 38 37 38 38 38 37 37 37 35 29 29 27
6 11 4 4 0 4 5 23 13 18 9 8 9 12 17 18 17 17 18 25 29 30 31 30 31 32 32 34 31 26 24 22 22 30 33 37 37 38 38 39 38 38 38 37 38 37 35 25 25
13 7 5 4 2 8 5 17 13 5 12 7 12 10 13 16 12 16 16 18 25 25 23 21 23 26 27 29 30 33 28 24 30 27 29 31 32 34 36 37 39 40 40 39 38 38 37 33 25
6 7 9 6 4 4 14 6 5 6 11 19 13 11 11 9 11 12 8 9 6 8 7 9 12 16 21 23 28 27 27 24 25 23 26 30 31 31 33 34 34 37 38 42 38 35 36 34 32
6 5 2 3 6 9 14 10 24 10 12 10 3 5 6 8 8 8 12 17 21 23 28 24 19 13 3 8 17 22 25 27 26 24 24 27 30 32 33 34 35 35 36 39 40 40 35 36 35
4 5 3 4 5 9 4 11 23 4 7 7 9 6 3 7 7 8 10 16 22 27 29 30 31 30 26 21 13 5 8 13 15 19 23 25 25 26 30 33 35 36 36 38 39 37 38 37 35
10 13 6 5 4 5 4 9 11 6 3 5 6 9 8 8 7 9 12 17 21 26 30 32 32 32 30 27 26 22 19 15 10 9 11 15 19 22 26 30 33 34 35 36 38 38 37 36 36
5 12 15 7 1 1 5 8 11 3 10 4 3 7 8 9 10 11 16 21 23 26 29 30 32 34 33 31 28 26 23 22 20 17 16 15 14 16 18 23 29 33 34 37 37 35 36 37 37
4 3 4 5 5 4 4 5 7 11 12 3 8 11 11 10 12 12 18 21 22 24 25 32 32 31 31 31 30 28 27 25 24 23 23 23 21 20 19 19 20 23 27 31 32 32 32 34 35
6 8 3 1 3 5 11 6 5 10 12 5 11 12 10 11 11 11 16 21 23 24 28 28 32 33 34 32 29 29 30 29 27 27 28 27 26 25 25 22 21 20 21 25 29 31 32 34 35
7 12 12 8 5 4 1 2 1 2 9 15 13 12 9 10 9 9 15 19 23 24 26 28 29 30 30 27 28 27 29 31 31 31 32 32 32 30 28 26 25 22 23 21 25 29 29 32 32
Wind_Direction
340 339 345 34 59 66 37 260 310 167 62 325 57 129 170 69 149 212 320 164 161 164 163 161 163 166 168 172 167 152 147 150 144 144 145 140 130 124 120 121 116 111 106 100 104 112 103 90 79
339 342 26 75 82 67 277 261 176 239 142 140 85 75 49 6 172 71 131 172 167 164 164 171 172 173 175 175 165 156 152 162 155 153 140 144 136 129 130 129 125 119 116 112 118 125 119 102 80
339 353 71 83 104 149 183 215 145 107 172 237 95 39 144 204 185 180 203 175 170 170 172 177 183 182 177 171 165 161 163 159 150 153 153 156 150 138 139 139 134 131 122 116 119 136 132 100 112
352 11 39 73 48 242 224 190 156 126 319 90 127 59 301 255 210 177 187 174 175 177 180 181 185 183 179 175 164 163 169 169 166 162 173 172 153 147 143 146 142 136 129 127 124 133 145 126 130
32 51 50 76 321 291 326 190 136 136 235 329 135 206 268 29 156 195 175 175 178 184 187 188 191 187 180 177 176 171 176 176 180 171 170 166 154 153 152 154 148 143 147 140 137 135 152 148 138
34 86 54 78 321 307 337 164 128 126 309 244 54 129 262 292 199 179 177 180 188 187 191 198 197 196 189 185 185 182 190 184 187 182 176 181 186 177 162 166 163 163 171 152 145 149 162 173 170
102 73 170 181 289 342 9 197 150 159 172 275 142 135 263 265 207 182 180 186 191 196 196 198 204 207 203 196 191 192 185 191 186 190 183 178 183 196 183 173 175 178 195 176 172 167 166 187 195
99 89 102 274 185 262 332 239 358 149 199 94 169 255 316 229 178 178 185 193 199 203 204 205 206 211 213 209 204 199 199 200 199 204 200 195 194 202 208 182 206 214 219 202 197 193 187 192 201
116 65 154 239 165 239 337 134 336 234 120 351 278 222 256 185 170 178 190 199 205 208 210 212 215 215 217 220 217 210 209 209 212 214 212 204 202 204 213 212 217 224 234 242 226 215 212 216 216
81 109 213 230 157 241 304 137 292 85 29 237 277 238 314 173 174 181 192 202 207 208 212 216 221 224 221 222 224 224 219 220 220 220 222 218 214 213 217 219 209 216 223 235 256 241 229 230 231
136 178 212 256 188 305 332 317 197 138 269 234 220 226 177 180 189 199 208 210 213 214 216 218 224 227 227 226 226 227 230 228 227 227 228 229 225 220 221 221 217 218 226 233 245 241 237 236 233
299 230 199 315 357 17 300 326 312 185 232 185 197 248 182 199 206 211 218 219 222 224 229 231 229 230 229 231 231 233 231 234 233 231 230 228 229 226 227 229 229 229 229 236 241 242 245 246 241
211 253 224 327 313 276 304 244 252 249 266 257 283 218 226 219 226 224 231 236 236 235 234 236 234 234 232 231 234 233 235 235 239 239 234 233 233 233 235 234 235 236 236 241 241 243 244 247 248
286 315 283 308 288 272 252 258 158 272 275 274 250 266 256 232 237 246 243 243 240 242 242 240 238 237 236 236 237 239 237 239 241 243 244 239 239 240 239 240 241 239 238 242 246 250 253 252 253
310 318 329 238 246 254 159 293 226 254 5 307 302 302 287 266 264 244 251 248 248 247 246 244 243 242 238 238 242 244 245 242 242 244 246 248 245 243 241 242 242 243 241 245 248 252 255 255 252
187 67 277 266 213 262 140 261 280 58 91 285 294 299 299 287 263 273 271 265 259 255 249 248 246 243 241 240 242 245 248 246 246 246 247 247 250 249 246 244 245 246 247 249 251 253 257 255 255
197 246 235 305 19 298 191 258 260 294 323 293 279 286 301 300 297 289 284 272 268 263 258 253 248 243 242 242 243 245 248 250 250 250 251 250 249 252 249 247 249 250 251 255 252 254 256 258 259
231 228 232 221 274 239 267 263 272 286 298 287 290 289 269 273 275 282 286 279 273 267 260 256 254 249 245 242 241 244 247 250 251 252 253 253 252 250 251 252 252 251 252 254 253 254 258 258 262
133 141 229 303 309 300 250 268 262 269 287 283 288 284 276 267 267 269 268 271 269 266 259 255 249 252 242 237 231 231 236 238 246 250 253 254 255 251 251 252 253 252 250 254 256 256 256 258 258
218 246 252 219 206 250 294 281 270 247 258 264 273 278 276 276 277 269 266 269 269 263 261 258 251 249 244 237 237 228 231 238 246 251 253 254 254 254 252 252 254 255 254 253 253 251 247 254 251
211 228 187 242 224 258 317 282 277 270 262 264 265 255 265 267 278 281 274 263 271 267 258 259 257 254 248 245 237 237 236 244 242 245 249 250 252 254 255 255 254 254 257 251 254 251 247 241 247
234 163 180 230 158 263 159 281 274 264 269 248 259 266 274 283 279 273 273 264 269 278 277 264 265 265 259 251 233 234 226 228 238 243 255 257 260 257 257 257 258 256 255 253 250 254 253 243 240
233 157 183 182 211 295 245 272 331 34 279 277 265 250 279 295 294 287 286 299 359 12 341 284 263 264 262 251 241 230 233 241 253 255 257 263 265 264 264 262 260 260 254 256 251 247 246 239 237
144 108 141 161 227 239 240 209 275 253 247 259 256 265 326 338 345 21 52 71 67 66 66 69 75 61 360 271 251 234 240 247 249 253 256 260 268 270 269 268 264 261 260 259 255 254 244 243 240
152 139 226 205 202 246 152 187 244 260 265 261 250 295 44 37 17 23 30 41 51 56 63 67 71 66 66 69 57 12 288 286 286 277 271 270 267 267 270 276 270 267 266 266 262 253 250 244 239
192 208 223 227 212 233 142 224 251 252 336 252 230 159 102 69 37 37 28 41 46 49 52 54 53 54 57 61 60 54 47 43 18 326 303 302 292 284 285 282 274 272 272 269 268 257 252 247 242
179 214 222 278 94 283 222 280 294 305 269 261 56 142 98 64 41 36 39 41 40 44 45 45 46 47 47 47 49 49 43 37 32 24 23 7 342 314 302 294 285 279 278 273 270 258 253 251 246
186 197 178 203 227 253 237 269 251 338 316 325 108 79 63 56 47 36 34 33 37 41 44 45 44 41 39 41 41 37 36 34 29 23 24 15 3 351 341 324 305 293 283 273 266 259 259 257 251
188 221 191 343 249 267 265 245 329 299 297 101 95 84 80 68 53 41 35 31 29 33 36 35 33 32 31 30 29 28 25 23 22 19 16 8 4 1 353 339 324 314 297 288 280 272 267 257 256
207 218 209 231 210 216 224 250 332 326 84 97 84 89 87 77 70 54 48 37 29 24 26 26 23 20 18 19 20 18 15 12 11 10 4 1 357 357 350 341 338 333 319 308 296 282 273 268 265